User: anonymous   Login
Location: South Range
(44.4886°N, 65.7879°W)
Time: 02:07:21
(UTC-04:00)
Language:

Iridium 56 - Orbit

View from above orbital plane
View from above orbital plane
View from above satellite
View from above satellite

Ground track
Ground track

The orbit data is extracted from the following two-line orbital elements,

1 25170U 98010B   17323.43063008  .00000096  00000-0  27047-4 0  9992
2 25170  86.3939 285.5836 0002212  89.6292 270.5157 14.34242821 34011
Epoch (UTC): 19 November 2017 10:20:06
Eccentricity: 0.0002212
inclination: 86.3939°
perigee height: 776 km
apogee height: 779 km
right ascension of ascending node: 285.5836°
argument of perigee: 89.6292°
revolutions per day: 14.34242821
mean anomaly at epoch: 270.5157°
orbit number at epoch: 3401

The dashed part of the orbit path shows where the satellite is in the earth's shadow,  

DLR